Preview of NWS' New Version of Forecast
This preview is not operational and should not be used for support decisions.

Regional Weather Roundup (RWR)

Issued by National Weather Service (NWS)

                            
000
ASUS46 KSEW 210410
RWRWA 

WASHINGTON REGIONAL WEATHER ROUNDUP
NATIONAL WEATHER SERVICE SEATTLE WA
900 PM PDT SAT JUL 20 2019

NOTE:"FAIR" INDICATES FEW OR NO CLOUDS BELOW 12,000 FEET WITH NO 
SIGNIFICANT WEATHER AND/OR OBSTRUCTIONS TO VISIBILITY.

WAZ507-509-555>559-210500-
SEATTLE, TACOMA, EVERETT, AND VICINITY
  
CITY           SKY/WX    TMP DP  RH WIND       PRES   REMARKS
EVERETT        CLEAR     67  49  52 N3        30.01F                  
BOEING FIELD   CLEAR     71  46  40 NW6       29.98F                  
RENTON         CLEAR     71  56  58 NW6       29.98S                  
SEATAC AIRPORT PTCLDY    70  48  45 NW6       30.00S                  
JBLM-MCCHORD   CLEAR     71  50  46 NE7       29.98F                  
PUYALLUP       FAIR      70  48  46 CALM      29.99F                  
BREMERTON      CLEAR     67  48  50 NE6       30.00F                  
JBLM-FT LEWIS  CLEAR     74  51  44 N6        29.98S                  
TACOMA NARROWS CLEAR     69  44  40 N7        29.99S                  
$$
 
WAZ001-503-506-510-514-515-210500-
NORTH INTERIOR
  
CITY           SKY/WX    TMP DP  RH WIND       PRES   REMARKS
BELLINGHAM     CLEAR     64  54  69 CALM      29.99F                  
FRIDAY HARBOR  CLEAR     60  49  66 W3        30.01F                  
EASTSOUND      CLEAR     64  52  63 CALM      29.99F                  
PORT ANGELES   CLEAR     61  50  67 W5        30.03F                  
EDIZ HOOK      FAIR      58  50  77 W14G20    30.02S                  
PORT TOWNSEND  FAIR      66  50  55 NW6       30.00S                  
NAS WHIDBEY    MOCLDY    61  50  67 CALM      30.04F                  
ARLINGTON        N/A     67  53  61 NW8       29.99F                  
BURLINGTON     CLEAR     63  52  67 NW8       29.99F                  
$$
 
WAZ020-022-039-040-504-511-512-210500-
SOUTHWEST INTERIOR
  
CITY           SKY/WX    TMP DP  RH WIND       PRES   REMARKS
SHELTON        CLEAR     72  50  45 N3        29.96S                  
OLYMPIA        CLEAR     72  46  39 NE5       29.98S                  
CHEHALIS       FAIR      70  54  56 CALM      29.97S                  
KELSO          CLEAR     77  50  38 CALM      29.94F                  
VANCOUVER      CLEAR     79  50  36 NW9       29.90S                  
SCAPPOOSE, OR  CLEAR     76  50  40 NW7       29.91S                  
PORTLAND, OR   PTCLDY    79  52  38 NW8       29.90S                  
$$
 
WAZ021-516-517-210500-
WASHINGTON COAST
  
CITY           SKY/WX    TMP DP  RH WIND       PRES   REMARKS
FORKS          CLEAR     62  50  64 N8        30.01S                  
HOQUIAM        CLEAR     66  53  63 VRB3      29.99S                  
ASTORIA, OR    CLEAR     63  55  75 NW12      29.98S                  
$$
 
WAZ019-023-024-040-567>569-210500-
CASCADE MOUNTAINS AND COLUMBIA GORGE
  
CITY           SKY/WX    TMP DP  RH WIND       PRES   REMARKS
STAMPEDE PASS  CLEAR     61  41  47 CALM      30.12S                  
TROUTDALE, OR  CLEAR     77  53  43 CALM      29.89S                  
HOOD RIVER, OR CLEAR     73  37  27 SE3       29.95S                  
THE DALLES, OR CLEAR     77  38  24 E6        29.94R                  
$$

WAZ026-027-041>044-520-521-210500-
EAST SLOPES
  
CITY           SKY/WX    TMP DP  RH WIND       PRES   REMARKS
OMAK           CLEAR     73  41  31 N10       30.05R                  
WENATCHEE      CLEAR     71  39  31 SE13      30.01R                  
ELLENSBURG     CLEAR     68  42  38 E8        30.03S                  
YAKIMA         CLEAR     68  42  38 W5        30.01R                  
SUNNYSIDE ARPT CLEAR     68  55  62 CALM      29.99                   
YAKIMA TC      FAIR      69  30  23 SE5       30.01R                  
$$

WAZ028-034-035-210500-
COLUMBIA BASIN
  
CITY           SKY/WX    TMP DP  RH WIND       PRES   REMARKS
EPHRATA        CLEAR     73  36  25 W5        30.01S                  
MOSES LAKE     CLEAR     76  37  24 W7        30.02R                  
PASCO          CLEAR     69  53  56 NW5       29.96S                  
RICHLAND ARPT  CLEAR     75  43  32 NW3       29.97                   
HERMISTON, OR  CLEAR     76  41  28 N6        29.96S                  
$$

WAZ036>038-210500-
NORTHEAST WASHINGTON
  
CITY           SKY/WX    TMP DP  RH WIND       PRES   REMARKS
SPOKANE GEIGER PTCLDY    71  40  32 NE8       30.10R                  
SPOKANE FELTS  CLEAR     69  41  36 N5        30.09R                  
FAIRCHILD AFB  CLEAR     68  39  35 NE8       30.10R                  
COEURDALENE,ID CLEAR     64  41  42 N6        30.11R                  
DEER PARK      CLEAR     60  41  49 MISG      30.10S                  
$$

WAZ029>033-210500-
SOUTHEAST WASHINGTON
  
CITY           SKY/WX    TMP DP  RH WIND       PRES   REMARKS
PULLMAN        CLEAR     65  37  35 N8        30.10S                  
LEWISTON, ID   CLEAR     76  34  21 NE6       30.02S                  
WALLA WALLA    CLEAR     71  32  23 NE9       29.98S                  
PENDLETON, OR  CLEAR     65  36  34 N8        29.99S                  
$$